Location: Lussas
(44.6119°N, 4.4726°E)
Time: 14:55:06
(UTC+00:00)

ATLAS 3B R/B - Pass Details

Date: 26 November 2020
Orbit: 1013 x 1182 km, 63.8° (Epoch: 08 January)

Event Time Altitude Azimuth Distance (km) Brightness Sun altitude
Exits shadow 03:59:43 21° 353° (N) 2,207 4.2 -30.4°
Maximum altitude 04:02:55 30° 34° (NE) 1,859 4.2 -29.8°
Drops below altitude 10° 04:09:00 10° 93° (E) 2,991 6.0 -28.7°
Sets 04:12:09 0° 104° (ESE) 3,974 6.9 -28.2°
